{"data":{"norad_id":66963,"intl_designator":"2025-288E","name":"STARLINK-36133","alt_names":[],"object_type":"PAYLOAD","status":"ACTIVE","operator":null,"country":"US","launch_date":"2025-12-08","launch_site_code":"AFETR","launch_vehicle":null,"mission":null,"orbit_class":"UNKNOWN","rcs_meters":null,"size_class":null,"mass_kg":null,"dimensions":null,"purposes":["comms"],"wikipedia_slug":null,"has_3d_model":false,"image_url":null,"decayed_at":null,"tle_current":{"epoch":"2026-05-24T21:54:14.058144Z","epoch_age_seconds":93177,"freshness":"FRESH","line1":"1 66963U 25288E   26144.91266271  .00015603  00000+0  57564-3 0  9990","line2":"2 66963  43.0018 313.0807 0001193 282.2046  77.8672 15.27561399 26944","mean_motion":15.27561399,"eccentricity":0.0001193,"inclination_deg":43.0018,"raan_deg":313.0807,"arg_perigee_deg":282.2046,"mean_anomaly_deg":77.8672,"bstar":0.00057564,"rev_number":2694,"period_min":94.267896592744,"perigee_km":482.28624854441,"apogee_km":483.92334083663,"semimajor_km":6861.2417946905,"source":"CELESTRAK","updated_at":"2026-05-25T13:38:21.393380Z"}}}